Regional Weather Roundup
Issued by NWS Huntsville, AL

Home | Current Version | Previous Version | Text Only | Print | Product List | Glossary On
Versions: 1 2 3 4 5 6 7 8 9 10 11 12 13 14 15 16 17 18 19 20 21 22 23 24 25 26 27 28 29 30 31 32 33 34 35 36 37 38 39 40 41 42 43 44 45 46 47 48 49 50
000
ASUS44 KHUN 250810
RWRHUN

WEATHER ROUNDUP FOR THE TENNESSEE VALLEY
NATIONAL WEATHER SERVICE HUNTSVILLE AL
300 AM CDT SAT APR 25 2015

ALZ001>004-250900-
NORTHWEST ALABAMA

CITY           SKY/WX    TMP DP  RH WIND       PRES   REMARKS
BANKHEAD NF      N/A     56  55  98 CALM        N/A
SHOALS AIRPORT HVY RAIN  57  54  89 SE6       29.85S FOG
$$

ALZ005>007-016-250900-
NORTH CENTRAL ALABAMA

CITY           SKY/WX    TMP DP  RH WIND       PRES   REMARKS
DECATUR AP     LGT RAIN  57  55  93 CALM      29.85F
HUNTSVILLE AP  LGT RAIN  58  54  86 E6        29.82F
HUN NWS/UAH      N/A     56  53  91 CALM        N/A
MERIDIANVILLE  RAIN      54  50  87 E3        29.83F
REDSTONE ARSN  LGT RAIN  56  55  95 CALM      29.82F FOG
VINEMONT AP    RAIN      55  53  92 E5        29.82F
$$

ALZ008>010-250900-
NORTHEAST ALABAMA

CITY           SKY/WX    TMP DP  RH WIND       PRES   REMARKS
ALBERTVILLE    RAIN      54  54 100 E3        29.83F
FORT PAYNE     RAIN      54  50  87 CALM      29.85F
SCOTTSBORO AP  LGT RAIN  55  55 100 N3        29.86S
SCOTTSBORO HCN   N/A     55 N/A N/A MISG        N/A
VALLEY HEAD      N/A     54 N/A N/A MISG        N/A
$$

TNZ076-096-097-250900-
SOUTHEASTERN MIDDLE TENNESSEE

CITY           SKY/WX    TMP DP  RH WIND       PRES   REMARKS
TULLAHOMA      MOCLDY    54  52  94 CALM      29.86F
WINCHESTER     CLOUDY    54  52  94 SE8       29.85F
$$

...SURROUNDING SITES...

CITY           SKY/WX    TMP DP  RH WIND       PRES   REMARKS
ATLANTA        CLOUDY    66  50  56 SE5       29.87F
ANNISTON       LGT RAIN  64  55  72 W3        29.88R
BIRMINGHAM     TSTM      65  56  72 SE8       29.79F
CHATTANOOGA    LGT RAIN  55  51  86 CALM      29.88F
CORINTH        RAIN      57  55  94 SE9       29.80F
DALTON         LGT RAIN  54  54 100 CALM      29.88F
GADSDEN        CLOUDY   N/A N/A N/A CALM      29.83F
GOLDEN TRNGL   CLOUDY    63  57  82 N3G26     29.78R THUNDER
HALEYVILLE     HVY RAIN  56  56 100 CALM      29.86R FOG
JACKSON TN     LGT RAIN  59  56  89 S7        29.71R
MEMPHIS        CLOUDY    62  59  90 S13G21    29.62F
NASHVILLE      CLOUDY    58  55  90 SW7       29.80F
OXFORD MS      FAIR      59  57  94 SE7       29.71F FOG
ROME           LGT RAIN  55  52  89 NE6       29.85F
SAVANNAH       CLOUDY    55  32  41 S6        29.82F
TUPELO         RAIN      59  57  93 E12       29.73F FOG
TUSCALOOSA     CLOUDY    68  57  68 SE9       29.72F
$$

...GULF COAST WEATHER...

CITY           SKY/WX    TMP DP  RH WIND       PRES   REMARKS
GULFPORT       CLOUDY    77  74  90 SW5       29.79S
PASCAGOULA     CLOUDY    76  74  93 S9        29.79F
MOBILE         CLOUDY    76  73  91 S7        29.81R
GULF SHORES    CLOUDY    74  73  97 SE7       29.81F
PENSACOLA      CLOUDY    75  74  96 S12       29.82F
DESTIN         CLOUDY    75  73  93 S7        29.84S
PANAMA CITY    MOCLDY    75  73  93 S10       29.86S
APPALACHICOLA  MOCLDY    77  72  84 S8        29.86F
$$



USA.gov is the U.S. government's official web portal to all federal, state and local government web resources and services.